星链-36478(STARLINK-36478)

导读 | 豆包AI

STARLINK-36478是美国发射的星链系列卫星,于2026年1月9日发射升空,隶属于SpaceX公司推进的星链卫星互联网星座项目。该卫星主要用于为全球范围内用户提供低延迟、高速率的宽带互联网服务,进一步扩充星链星座的网络覆盖规模,增强星座整体运行稳定性与服务能力。

基本信息
目录编号:
67351
目录名称:
STARLINK-36478
国际标识:
2026-003T
轨道中心:
EARTH
卫星名称:
星链-36478
卫星全名:
星链-36478(STARLINK-36478)
卫星状态:
在轨 (已飞行85 天)
发射日期:
2026-01-09 UTC
国别 :
美国 (US)
星等 :
--
轨道信息
数据来源 国际轨道数据
星历时间: 2026-04-03T09:15:29+0800
22小时前
查看轨道信息
半长轴: 6861.091km
偏心率: 0.0000926
轨道倾角: 43.001°
近地点辐角 207.818°
升交点赤经 89.144°
平近点角 152.262°
近地点: 482.318km
远地点: 483.59km
周期: 94.265分钟
每日圈数: 15.276119
详细信息
固有亮度:
5
最大亮度:
2.5
卫星平台:
Starlink V1.0
覆盖范围:
全球
运营商:
太空探索技术公司
运营商所在国:
美国
制造商(研发单位):
太空探索技术公司
制造商所在国:
美国
使用方式:
暂无
卫星简介
Starlink 计划是 SpaceX 推出的全球卫星互联网项目,通过发射低轨道卫星,为全球尤其是偏远地区提供高速、低延迟的互联网服务。自 2019 年起,Starlink 已部署数千颗卫星,旨在缩小全球数字鸿沟,推动互联网普及。该项目还为军事、航空等行业提供通信支持,带来广泛经济效益。
2D轨道图
3D轨道图
轨道高度分析图
轨道倾角分析图
轨道综合分析图
查看轨道综合分析图